Date String (YYYY-MM-DD hh:mm:ss) UTC,Instrument flags,Ambient pressure (hPa),Sample flow (lpm),Bypass flow (lpm),Sample temperature (°C),Ambient temperature (°C),ASC tube jacket temperature (°C),LED temperature (°C),Box temperature (°C),Sample RH (%),Span deviation,Mass concentration (μg/m³),Mass concentration (μg/m³),Mass concentration (μg/m³)
DateTimeUTC,F1_M11,P_M11,Q1_M11,Q2_M11,T1_M11,T2_M11,T3_M11,T4_M11,T5_M11,U1_M11,ZSPAN_M11,X0_M11,X2_M11,X1_M11
2022-05-04 20:00:00,,0824.1,4.99,0.00,24.7,24.0,00.0,33.6,26.6,23.3,0000.0,0001.78,0000.98,0000.64
2022-05-04 20:01:00,,0824.1,5.01,0.00,24.8,24.0,00.0,33.6,26.6,23.6,0000.0,0001.75,0000.98,0000.65
2022-05-04 20:02:00,,0824.1,4.99,0.00,24.8,24.0,00.0,33.6,26.6,24.1,0000.0,0002.44,0001.00,0000.65
2022-05-04 20:03:00,,0824.1,5.00,0.00,24.8,24.1,00.0,33.6,26.7,24.9,0000.0,0003.11,0001.05,0000.66
2022-05-04 20:04:00,,0824.1,5.00,0.00,24.8,24.1,00.0,33.6,26.7,24.6,0000.0,0003.15,0001.06,0000.68
2022-05-04 20:05:00,,0824.0,5.00,0.00,24.8,24.1,00.0,33.6,26.7,24.1,0000.0,0003.21,0001.09,0000.70
2022-05-04 20:06:00,,0824.1,5.00,0.00,24.8,24.1,00.0,33.6,26.7,24.0,0000.0,0003.30,0001.13,0000.72
2022-05-04 20:07:00,,0824.1,5.00,0.00,24.8,24.1,00.0,33.7,26.7,24.0,0000.0,0003.36,0001.17,0000.74
2022-05-04 20:08:00,,0824.1,4.99,0.00,24.8,24.1,00.0,33.7,26.7,23.1,0000.0,0003.47,0001.22,0000.77
2022-05-04 20:09:00,,0824.0,5.01,0.00,24.9,24.1,00.0,33.7,26.7,23.3,0000.0,0003.53,0001.26,0000.79
2022-05-04 20:10:00,,0824.0,4.99,0.00,24.9,24.1,00.0,33.7,26.8,23.1,0000.0,0003.55,0001.31,0000.82
2022-05-04 20:11:00,,0824.0,5.01,0.00,24.9,24.1,00.0,33.7,26.8,24.2,0000.0,0003.63,0001.36,0000.86
2022-05-04 20:12:00,,0824.1,4.99,0.00,24.9,24.1,00.0,33.7,26.8,25.6,0000.0,0003.76,0001.41,0000.89
2022-05-04 20:13:00,,0824.1,5.01,0.00,24.9,24.2,00.0,33.7,26.8,25.3,0000.0,0003.22,0001.46,0000.93
2022-05-04 20:14:00,,0824.0,4.99,0.00,24.9,24.2,00.0,33.8,26.8,24.5,0000.0,0002.69,0001.50,0000.96
2022-05-04 20:15:00,,0824.1,5.02,0.00,24.9,24.1,00.0,33.8,26.8,24.3,0000.0,0002.72,0001.53,0000.98
2022-05-04 20:16:00,,0824.1,4.99,0.00,24.9,24.1,00.0,33.8,26.8,24.6,0000.0,0002.82,0001.53,0000.99
2022-05-04 20:17:00,,0824.0,5.01,0.00,24.9,24.2,00.0,33.8,26.8,24.1,0000.0,0002.95,0001.51,0001.00
2022-05-04 20:18:00,,0824.1,4.99,0.00,24.9,24.2,00.0,33.8,26.8,24.0,0000.0,0002.94,0001.53,0001.02
2022-05-04 20:19:00,,0824.1,5.01,0.00,24.9,24.2,00.0,33.8,26.8,24.1,0000.0,0002.87,0001.52,0001.03
2022-05-04 20:20:00,,0824.1,5.00,0.00,24.9,24.2,00.0,33.8,26.8,24.0,0000.0,0002.90,0001.55,0001.06
2022-05-04 20:21:00,,0824.1,4.99,0.00,25.0,24.2,00.0,33.8,26.8,24.0,0000.0,0002.85,0001.55,0001.06
2022-05-04 20:22:00,,0824.0,5.00,0.00,25.0,24.2,00.0,33.8,26.8,23.7,0000.0,0002.71,0001.51,0001.07
2022-05-04 20:23:00,,0824.1,5.00,0.00,25.0,24.2,00.0,33.8,26.8,23.7,0000.0,0002.61,0001.51,0001.07
2022-05-04 20:24:00,,0824.1,5.00,0.00,24.9,24.2,00.0,33.8,26.8,23.5,0000.0,0002.50,0001.47,0001.05
2022-05-04 20:25:00,,0824.1,5.00,0.00,24.9,24.1,00.0,33.8,26.8,24.2,0000.0,0002.43,0001.43,0001.03
2022-05-04 20:26:00,,0824.1,5.01,0.00,24.9,24.1,00.0,33.8,26.8,24.3,0000.0,0002.46,0001.44,0001.02
2022-05-04 20:27:00,,0824.1,4.99,0.00,24.9,24.1,00.0,33.8,26.7,24.6,0000.0,0002.39,0001.44,0001.01
2022-05-04 20:28:00,,0824.0,5.01,0.00,24.9,24.1,00.0,33.8,26.8,24.4,0000.0,0002.09,0001.43,0001.00
2022-05-04 20:29:00,,0824.1,5.00,0.00,24.9,24.2,00.0,33.8,26.8,25.1,0000.0,0002.13,0001.44,0001.00
2022-05-04 20:30:00,,0824.1,5.00,0.00,24.9,24.2,00.0,33.8,26.8,24.5,0000.0,0002.25,0001.48,0001.00
2022-05-04 20:31:00,,0824.1,5.01,0.00,24.9,24.1,00.0,33.8,26.8,24.7,0000.0,0002.51,0001.48,0001.01
2022-05-04 20:32:00,,0824.1,4.99,0.00,24.9,24.1,00.0,33.8,26.8,24.1,0000.0,0002.84,0001.51,0001.03
2022-05-04 20:33:00,,0824.2,5.01,0.00,24.9,24.1,00.0,33.8,26.8,23.5,0000.0,0002.93,0001.53,0001.03
2022-05-04 20:34:00,,0824.2,4.99,0.00,24.9,24.1,00.0,33.8,26.7,23.7,0000.0,0002.90,0001.52,0001.04
2022-05-04 20:35:00,,0824.2,5.02,0.00,24.9,24.1,00.0,33.8,26.7,24.7,0000.0,0002.96,0001.55,0001.05
2022-05-04 20:36:00,,0824.2,4.99,0.00,24.9,24.1,00.0,33.8,26.8,24.7,0000.0,0002.92,0001.54,0001.07
2022-05-04 20:37:00,,0824.2,5.01,0.00,24.9,24.1,00.0,33.8,26.8,23.6,0000.0,0002.89,0001.53,0001.08
2022-05-04 20:38:00,,0824.3,4.99,0.00,24.9,24.1,00.0,33.8,26.7,23.6,0000.0,0003.06,0001.55,0001.08
2022-05-04 20:39:00,,0824.2,5.00,0.00,24.9,24.2,00.0,33.8,26.8,24.0,0000.0,0003.50,0001.62,0001.08
2022-05-04 20:40:00,,0824.2,5.01,0.00,24.9,24.2,00.0,33.8,26.8,23.4,0000.0,0003.58,0001.61,0001.08
2022-05-04 20:41:00,,0824.2,4.99,0.00,24.9,24.2,00.0,33.8,26.8,23.9,0000.0,0003.52,0001.58,0001.07
2022-05-04 20:42:00,,0824.2,5.00,0.00,24.9,24.2,00.0,33.8,26.8,24.6,0000.0,0003.32,0001.56,0001.05
2022-05-04 20:43:00,,0824.2,5.00,0.00,24.9,24.2,00.0,33.8,26.8,23.2,0000.0,0002.86,0001.49,0001.02
2022-05-04 20:44:00,,0824.2,4.99,0.00,24.9,24.2,00.0,33.8,26.8,23.5,0000.0,0002.90,0001.46,0001.01
2022-05-04 20:45:00,,0824.2,5.01,0.00,24.9,24.2,00.0,33.8,26.8,22.9,0000.0,0002.96,0001.43,0000.98
2022-05-04 20:46:00,,0824.2,4.99,0.00,24.9,24.2,00.0,33.8,26.8,23.3,0000.0,0002.88,0001.38,0000.97
2022-05-04 20:47:00,,0824.2,5.00,0.00,24.9,24.2,00.0,33.8,26.8,23.4,0000.0,0002.94,0001.38,0000.96
2022-05-04 20:48:00,,0824.2,5.01,0.00,24.9,24.2,00.0,33.8,26.8,23.7,0000.0,0002.94,0001.38,0000.96
2022-05-04 20:49:00,,0824.2,4.99,0.00,24.9,24.2,00.0,33.8,26.8,23.8,0000.0,0002.80,0001.36,0000.97
2022-05-04 20:50:00,,0824.1,5.01,0.00,24.9,24.2,00.0,33.8,26.8,23.6,0000.0,0002.47,0001.32,0000.97
2022-05-04 20:51:00,,0824.2,4.99,0.00,24.9,24.2,00.0,33.8,26.8,23.4,0000.0,0002.39,0001.34,0000.98
2022-05-04 20:52:00,,0824.2,4.99,0.00,24.9,24.2,00.0,33.8,26.8,22.3,0000.0,0002.79,0001.34,0000.97
2022-05-04 20:53:00,,0824.2,5.01,0.00,24.9,24.2,00.0,33.8,26.8,21.5,0000.0,0002.75,0001.32,0000.96
2022-05-04 20:54:00,,0824.1,4.99,0.00,24.9,24.2,00.0,33.8,26.8,22.0,0000.0,0002.76,0001.31,0000.94
2022-05-04 20:55:00,,0824.1,5.00,0.00,24.9,24.2,00.0,33.8,26.8,23.2,0000.0,0002.70,0001.34,0000.94
2022-05-04 20:56:00,,0824.1,4.99,0.00,24.9,24.2,00.0,33.8,26.8,23.4,0000.0,0002.60,0001.34,0000.96
2022-05-04 20:57:00,,0824.1,5.01,0.00,24.9,24.2,00.0,33.8,26.8,23.1,0000.0,0002.67,0001.39,0000.98
2022-05-04 20:58:00,,0824.1,4.99,0.00,24.9,24.2,00.0,33.8,26.8,23.1,0000.0,0002.71,0001.41,0000.98
2022-05-04 20:59:00,,0824.1,5.00,0.00,24.9,24.2,00.0,33.8,26.8,22.7,0000.0,0002.84,0001.42,0000.97
